EW3693 Weather Reports


time (UTC)temp
F
wind
direction
speed
knots
gust
knots
rain 1hr
in
rain 24hr
in
rain mn
in
humidity
%
barometer
mb
20260508102025 59 68 4.3 10.4 0.00 0.00 0.00 46 1022.0
20260508101025 59 90 3.5 7.8 0.00 0.00 0.00 49 1022.1
20260508100025 58 113 5.2 8.7 0.00 0.00 0.00 52 1022.0
20260508095045 58 113 2.6 6.1 0.00 0.00 0.00 54 1022.1
20260508094024 56 113 5.2 10.4 0.00 0.00 0.00 51 1022.1
20260508093024 56 135 2.6 7.0 0.00 0.00 0.00 52 1022.2
20260508092025 55 113 5.2 9.6 0.00 0.00 0.00 51 1022.2
20260508091045 55 113 5.2 9.6 0.00 0.00 0.00 51 1022.2
20260508090025 56 113 3.5 9.6 0.00 0.00 0.00 52 1022.2
20260508085025 55 90 4.3 9.6 0.00 0.00 0.00 49 1022.2
20260508084024 56 90 4.3 7.8 0.00 0.00 0.00 50 1022.2
20260508083024 56 113 5.2 9.6 0.00 0.00 0.00 54 1022.2
20260508082045 55 90 6.1 9.6 0.00 0.00 0.00 53 1022.2
20260508081025 54 90 5.2 9.6 0.00 0.00 0.00 53 1022.2
20260508080025 54 90 7.0 10.4 0.00 0.00 0.00 54 1022.2
20260508075024 53 90 7.0 11.3 0.00 0.00 0.00 55 1022.1
20260508074045 53 90 7.0 13.0 0.00 0.00 0.00 53 1022.0
20260508073045 53 90 3.5 8.7 0.00 0.00 0.00 57 1022.0
20260508072024 51 113 4.3 7.8 0.00 0.00 0.00 60 1022.1
20260508071025 52 68 0.9 4.3 0.00 0.00 0.00 62 1022.1
20260508070024 50 113 1.7 5.2 0.00 0.00 0.00 65 1022.0
20260508065045 49 113 2.6 5.2 0.00 0.00 0.00 66 1021.9
20260508064024 49 113 0.9 5.2 0.00 0.00 0.00 68 1021.8
20260508063024 48 0.0 0.0 0.00 0.00 0.00 68 1021.6
20260508062024 47 113 0.9 7.0 0.00 0.00 0.00 67 1021.7
20260508061045 47 0.0 0.0 0.00 0.00 0.00 69 1021.7
20260508060024 46 0.0 0.0 0.00 0.00 0.00 67 1021.6
20260508055024 47 113 1.7 7.0 0.00 0.00 0.00 63 1021.4
20260508054024 47 113 1.7 6.1 0.00 0.00 0.00 65 1021.5
20260508053024 45 0.0 0.0 0.00 0.00 0.00 71 1021.5
20260508052024 42 0.0 0.0 0.00 0.00 0.00 79 1021.4
20260508051024 41 0.0 0.0 0.00 0.00 0.00 81 1021.4
20260508050024 40 0.0 0.0 0.00 0.00 0.00 85 1021.5
20260508045024 39 0.0 0.0 0.00 0.00 0.00 86 1021.3
20260508044024 38 0.0 0.0 0.00 0.00 0.00 86 1021.2
20260508043024 37 0.0 0.0 0.00 0.00 0.00 86 1021.1
20260508042024 37 0.0 0.0 0.00 0.00 0.00 87 1021.1
20260508041024 36 0.0 0.0 0.00 0.00 0.00 88 1021.0
20260508040025 36 0.0 0.0 0.00 0.00 0.00 87 1021.0
20260508035144 36 0.0 0.0 0.00 0.00 0.00 87 1021.1
20260508034024 36 0.0 0.0 0.00 0.00 0.00 86 1021.1
20260508033024 36 0.0 0.0 0.00 0.00 0.00 85 1021.0
20260508032024 36 0.0 0.0 0.00 0.00 0.00 86 1020.9
20260508031024 36 0.0 0.0 0.00 0.00 0.00 85 1020.8
20260508030124 36 0.0 0.0 0.00 0.00 0.00 85 1020.8
20260508025044 37 0.0 0.0 0.00 0.00 0.00 85 1020.8
20260508024024 38 0.0 0.0 0.00 0.00 0.00 84 1020.7
20260508023024 38 0.0 0.0 0.00 0.00 0.00 84 1020.7
20260508022024 38 0.0 0.0 0.00 0.00 0.00 83 1020.8
20260508021024 38 0.0 0.0 0.00 0.00 0.00 84 1020.7
20260508020044 38 0.0 0.0 0.00 0.00 0.00 83 1020.6
20260508015024 39 0.0 0.0 0.00 0.00 0.00 83 1020.6
20260508014024 39 45 0.9 3.5 0.00 0.00 0.00 83 1020.7
20260508013043 40 0.0 0.0 0.00 0.00 0.00 83 1020.6
20260508012104 40 0.0 3.5 0.00 0.00 0.00 84 1020.5
20260508011024 39 0.0 0.0 0.00 0.00 0.00 85 1020.6
20260508010024 39 0.0 0.0 0.00 0.00 0.00 86 1020.5
20260508005024 38 0.0 0.0 0.00 0.00 0.00 86 1020.6
20260508004024 38 0.0 0.0 0.00 0.00 0.00 86 1020.5
20260508003023 39 0.0 0.0 0.00 0.00 0.00 85 1020.5
20260508002024 39 0.0 0.0 0.00 0.00 0.00 85 1020.4
20260508001023 39 0.0 0.0 0.00 0.00 0.00 85 1020.4
20260508000023 39 0.0 0.0 0.00 0.00 0.00 85 1020.4
20260507235023 39 0.0 0.0 0.00 0.00 0.00 85 1020.4
20260507234023 39 0.0 0.0 0.00 0.00 0.00 85 1020.3
20260507233024 40 0.0 0.0 0.00 0.00 0.00 84 1020.4
20260507232025 40 0.0 0.0 0.00 0.00 0.00 83 1020.4
20260507231025 40 0.0 0.0 0.00 0.00 0.00 83 1020.2
20260507230025 41 0.0 0.0 0.00 0.00 0.00 82 1020.2
20260507225025 41 0.0 0.0 0.00 0.00 0.00 83 1020.2
20260507224025 41 0.0 0.0 0.00 0.00 0.00 83 1020.2
20260507223025 41 0.0 0.0 0.00 0.00 0.00 83 1020.1
20260507222025 41 0.0 0.0 0.00 0.00 0.00 82 1020.2
20260507221026 41 0.0 0.0 0.00 0.00 0.00 82 1020.1
20260507220026 41 0.0 0.0 0.00 0.00 0.00 81 1020.0
20260507215025 42 0.0 0.0 0.00 0.00 0.00 80 1020.0
20260507214046 43 0.0 0.0 0.00 0.00 0.00 79 1020.0
20260507213025 43 0.0 0.0 0.00 0.00 0.00 78 1019.9
20260507212025 43 0.0 0.0 0.00 0.00 0.00 78 1019.7
20260507211025 44 0.0 0.0 0.00 0.00 0.00 78 1019.8
20260507210025 44 0.0 0.0 0.00 0.00 0.00 77 1019.7
20260507205025 45 0.0 0.0 0.00 0.00 0.00 77 1019.6
20260507204025 45 0.0 0.0 0.00 0.00 0.00 78 1019.6
20260507203025 45 0.0 0.0 0.00 0.00 0.00 78 1019.6
20260507202025 45 0.0 0.0 0.00 0.00 0.00 77 1019.5
20260507201025 46 0.0 0.0 0.00 0.00 0.00 75 1019.3
20260507200025 46 0.0 0.0 0.00 0.00 0.00 74 1019.2
20260507195025 47 0.0 0.0 0.00 0.00 0.00 71 1019.1
20260507194025 49 0.0 0.0 0.00 0.00 0.00 63 1019.0
20260507193025 51 0.0 0.0 0.00 0.00 0.00 59 1019.0
20260507192025 51 0.0 0.0 0.00 0.00 0.00 58 1018.8
20260507191025 52 0.0 1.7 0.00 0.00 0.00 57 1018.7
20260507190025 52 113 0.9 3.5 0.00 0.00 0.00 56 1018.7
20260507185025 53 113 0.9 5.2 0.00 0.00 0.00 55 1018.5
20260507184025 54 113 3.5 7.8 0.00 0.00 0.00 54 1018.3
20260507183025 54 113 1.7 6.1 0.00 0.00 0.00 54 1018.2
20260507182025 55 0.0 0.0 0.00 0.00 0.00 54 1018.2
20260507181025 55 113 1.7 7.0 0.00 0.00 0.00 54 1018.0
20260507180025 56 113 2.6 7.0 0.00 0.00 0.00 53 1017.9
20260507175025 56 113 1.7 5.2 0.00 0.00 0.00 53 1017.9
20260507174025 56 90 2.6 7.8 0.00 0.00 0.00 53 1017.7
20260507173025 57 90 2.6 7.0 0.00 0.00 0.00 51 1017.7
20260507172025 56 90 4.3 8.7 0.00 0.00 0.00 51 1017.6
20260507171025 57 90 4.3 7.0 0.00 0.00 0.00 51 1017.5
20260507170025 57 90 4.3 8.7 0.00 0.00 0.00 51 1017.5
20260507165025 57 90 5.2 9.6 0.00 0.00 0.00 50 1017.4
20260507164025 57 90 5.2 11.3 0.00 0.00 0.00 51 1017.4
20260507163025 58 90 3.5 7.8 0.00 0.00 0.00 50 1017.3
20260507162025 58 90 4.3 9.6 0.00 0.00 0.00 50 1017.3
20260507161025 58 90 4.3 7.8 0.00 0.00 0.00 48 1017.3
20260507160024 58 90 6.1 12.2 0.00 0.00 0.00 49 1017.3
20260507155045 59 68 5.2 11.3 0.00 0.00 0.00 49 1017.2
20260507154025 59 113 3.5 7.8 0.00 0.00 0.00 49 1017.2
20260507153024 59 68 6.1 10.4 0.00 0.00 0.00 48 1017.1
20260507152024 59 90 6.1 10.4 0.00 0.00 0.00 49 1017.0
20260507151024 59 90 7.0 9.6 0.00 0.00 0.00 49 1017.0
20260507150025 60 90 6.1 9.6 0.00 0.00 0.00 49 1016.9
20260507145025 60 90 6.1 11.3 0.00 0.00 0.00 50 1016.9
20260507144024 59 90 5.2 12.2 0.00 0.00 0.00 50 1016.9
20260507143025 60 68 4.3 9.6 0.00 0.00 0.00 51 1016.9
20260507142025 60 113 5.2 9.6 0.00 0.00 0.00 49 1017.0
20260507141025 60 90 6.1 13.9 0.00 0.00 0.00 51 1016.9
20260507140104 59 68 5.2 12.2 0.00 0.00 0.00 53 1017.0
20260507135045 60 90 5.2 11.3 0.00 0.00 0.00 51 1016.9
20260507134024 60 90 7.8 13.0 0.00 0.00 0.00 52 1017.0
20260507133024 59 90 8.7 12.2 0.00 0.00 0.00 51 1017.0
20260507132024 59 90 7.8 14.8 0.00 0.00 0.00 51 1016.9
20260507131024 60 90 4.3 8.7 0.00 0.00 0.00 52 1016.8
20260507130024 60 90 5.2 10.4 0.00 0.00 0.00 53 1016.7
20260507125025 59 90 7.8 13.9 0.00 0.00 0.00 52 1016.7
20260507124024 59 68 5.2 12.2 0.00 0.00 0.00 56 1016.7
20260507123044 60 90 2.6 9.6 0.00 0.00 0.00 57 1016.6
20260507122044 58 68 4.3 10.4 0.00 0.00 0.00 58 1016.5
20260507121024 58 90 6.1 11.3 0.00 0.00 0.00 58 1016.5
20260507120025 60 90 3.5 9.6 0.00 0.00 0.00 57 1016.5
20260507115024 59 68 7.8 13.0 0.00 0.00 0.00 55 1016.4
20260507114044 59 68 7.0 13.0 0.00 0.00 0.00 54 1016.5
20260507113024 59 68 4.3 10.4 0.00 0.00 0.00 58 1016.6
20260507112024 57 90 4.3 11.3 0.00 0.00 0.00 59 1016.5
20260507111024 58 90 4.3 7.8 0.00 0.00 0.00 59 1016.4
20260507110024 57 90 6.1 11.3 0.00 0.00 0.00 61 1016.4
20260507105024 57 23 3.5 9.6 0.00 0.00 0.00 63 1016.5
20260507104024 57 90 4.3 11.3 0.00 0.00 0.00 62 1016.4
20260507103024 57 113 5.2 10.4 0.00 0.00 0.00 59 1016.3